[[{"header":{"parameterUnit":"m.s-1","parameterCategory":1,"la1":30.2991,"la2":30.254,"lo1":-89.0895,"lo2":-89.0444,"dx":0.0017,"dy":0.0017,"nx":28,"ny":28,"refTime":"2023-01-09T03:00:00:Z","depth":0,"parameterNumber":2,"parameterNumberName":"U-component_of_WINDS"},"data":[0,0,0,0,0,0,0,0,0,0,0,0,0,0,0,0,0,0,0,0,0,0,0,0,0,0,0,0,0,0,0,0,0,0,0,0,0,0,0,0,0,0,0,0,0,0,0,0,0,0,0,0,0,0,0,0,0,0,1.114,1.1141,0,1.1175,1.1175,1.1176,1.1194,1.1194,1.1195,1.1195,1.1228,1.1229,1.123,0,0,0,0,0,0,0,0,0,0,0,0,0,1.1089,1.1089,1.114,1.1141,1.1141,1.1175,1.1175,1.1176,1.1194,1.1194,1.1195,1.1195,1.1228,1.1229,1.123,0,0,0,0,0,0,0,0,0,0,0,0,0,1.1116,1.109,1.114,1.1155,1.1156,1.1175,1.1175,1.1176,1.1194,1.1194,1.1195,1.1195,1.1227,1.1229,1.123,1.1236,0,0,1.1234,1.1234,0,0,0,0,0,0,0,0,1.1114,1.1118,1.1152,1.1154,1.1156,1.1181,1.1169,1.1196,1.1194,1.118,1.1195,1.1195,1.1212,1.1214,1.1221,1.1238,1.1239,1.1234,1.1234,1.1235,1.1235,0,0,0,0,0,0,0,1.1112,1.1116,1.1154,1.1153,1.1155,1.1159,1.1163,1.1174,1.1195,1.1181,1.1183,1.1187,1.1213,1.1219,1.1222,1.1239,1.1234,1.1235,1.1236,1.1236,1.1263,1.1263,0,0,0,0,0,0,1.1108,1.1115,1.1153,1.1155,1.1135,1.116,1.1164,1.1172,1.1195,1.1198,1.1186,1.1187,1.1217,1.122,1.1223,1.1232,1.1235,1.1236,1.1237,1.1263,1.1263,1.1263,0,0,0,0,0,0,1.1107,1.1112,1.1151,1.1135,1.1141,1.116,1.117,1.1173,1.118,1.1199,1.1202,1.119,1.1217,1.1221,1.1233,1.1233,1.1237,1.1238,1.1263,1.1263,1.1263,1.125,0,0,0,0,0,0,1.1106,1.1111,1.1114,1.1135,1.1141,1.1161,1.117,1.1174,1.1182,1.1183,1.1203,1.1206,1.1218,1.1231,1.1234,1.1235,1.1239,1.1263,1.1263,1.1263,1.125,1.1249,1.1248,0,0,0,0,0,1.1104,1.1108,1.1114,1.1119,1.1146,1.1161,1.1165,1.1179,1.1182,1.1185,1.1197,1.1205,1.1233,1.1232,1.1236,1.1237,1.1263,1.1263,1.1263,1.125,1.1249,1.1248,0,0,0,0,0,0,1.1086,1.1111,1.1118,1.113,1.1143,1.1164,1.1169,1.1177,1.1189,1.119,1.1206,1.1211,1.1221,1.123,1.1229,1.1244,1.1249,1.125,1.1238,1.1237,1.1236,1.1233,1.124,0,0,0,0,0,1.1084,1.1095,1.1116,1.1124,1.1131,1.1149,1.1156,1.1166,1.118,1.1185,1.1199,1.1212,1.1223,1.1231,1.1242,1.1252,1.1256,1.1254,1.1253,1.1253,1.1253,1.1259,1.1258,1.1263,1.1263,1.1263,0,0,1.1079,1.1094,1.11,1.1121,1.1133,1.1144,1.1153,1.1164,1.1172,1.1187,1.1199,1.1209,1.1225,1.1235,1.1241,1.1243,1.1253,1.1252,1.1252,1.1252,1.1258,1.1258,1.1258,1.1263,1.1263,1.1263,0,0,1.1075,1.1088,1.1096,1.1108,1.1125,1.1137,1.1139,1.1159,1.1167,1.1179,1.1191,1.12,1.1219,1.123,1.1238,1.1239,1.1247,1.1242,1.1237,1.1243,1.1242,1.1242,1.1242,1.1242,1.1242,1.1242,1.1242,0,1.1066,1.1083,1.1099,1.1109,1.1118,1.1133,1.1141,1.1152,1.1172,1.1178,1.1181,1.1206,1.1217,1.1231,1.1231,1.1237,1.1239,1.124,1.1241,1.1241,1.1241,1.1241,1.1241,1.1242,1.1242,1.1242,1.1242,0,1.1071,1.1083,1.1088,1.1108,1.1117,1.1126,1.1143,1.1151,1.116,1.1171,1.1183,1.1198,1.1213,1.1217,1.1225,1.1231,1.1233,1.1238,1.1243,1.124,1.124,1.124,1.1241,1.1241,1.1241,1.1241,0,0,1.1057,1.1086,1.1088,1.1097,1.1118,1.1127,1.1137,1.1152,1.1158,1.1172,1.118,1.1197,1.1202,1.1211,1.1221,1.1226,1.1225,1.1231,1.1231,1.1229,1.1233,1.1229,1.1229,1.1231,1.1231,1.1231,1.1232,0,1.1056,1.1075,1.109,1.1103,1.1114,1.1128,1.1137,1.115,1.1161,1.1171,1.1183,1.1195,1.1201,1.1206,1.1212,1.1224,1.1226,1.1224,1.1238,1.1239,1.1234,1.1229,1.1224,1.1224,1.1232,1.1232,1.1232,0,1.1058,1.1072,1.1086,1.1106,1.1111,1.1119,1.1134,1.1144,1.1159,1.1167,1.1177,1.1188,1.1198,1.1202,1.1217,1.1215,1.1222,1.1229,1.1229,1.1231,1.1235,1.123,1.1225,1.1224,1.1233,1.1233,1.1233,0,1.1046,1.1068,1.108,1.1087,1.1111,1.1116,1.1125,1.1141,1.1149,1.1163,1.1168,1.1182,1.119,1.12,1.1214,1.1216,1.1227,1.1233,1.1234,1.1233,1.1235,1.1235,1.123,1.124,1.124,1.124,1.124,0,1.1043,1.1051,1.1075,1.1082,1.1091,1.1108,1.1117,1.1128,1.1142,1.1151,1.1164,1.1172,1.119,1.12,1.1211,1.1221,1.1225,1.1231,1.1234,1.123,1.1229,1.1234,1.1234,1.124,1.124,1.124,1.124,0,1.1031,1.1047,1.1061,1.1082,1.1088,1.1094,1.1112,1.1119,1.1131,1.1143,1.1146,1.1164,1.1177,1.1192,1.121,1.1217,1.1227,1.1231,1.1221,1.1223,1.1223,1.1223,1.1222,1.1222,1.1231,1.1231,1.1231,0,1.1028,1.1035,1.1058,1.1065,1.1075,1.1087,1.1096,1.1112,1.112,1.1139,1.1144,1.1158,1.117,1.119,1.1204,1.1218,1.1222,1.1221,1.1224,1.122,1.1222,1.1221,1.1222,1.122,1.1219,1.1219,1.1219,0,1.1022,1.1029,1.1042,1.1057,1.1068,1.1081,1.1094,1.1099,1.1118,1.1127,1.1141,1.115,1.1168,1.1182,1.1197,1.1207,1.1216,1.1218,1.1219,1.1215,1.1209,1.1213,1.1219,1.1218,1.1218,1.1218,1.1218,1.1218,1.1014,1.1021,1.1038,1.1052,1.1064,1.1076,1.1084,1.1097,1.1109,1.1125,1.1134,1.1148,1.1163,1.1185,1.1194,1.1205,1.1208,1.1209,1.121,1.121,1.1209,1.1208,1.1208,1.1208,1.1208,1.1208,1.1208,0,1.1008,1.102,1.1032,1.1051,1.1062,1.107,1.1085,1.1093,1.1105,1.1119,1.1131,1.1147,1.116,1.1176,1.119,1.1196,1.12,1.1199,1.1199,1.1201,1.1205,1.1203,1.1195,1.1195,1.1195,1.1195,1.1195,1.1195,1.1006,1.1018,1.1028,1.1046,1.1058,1.1071,1.1079,1.1091,1.1102,1.1119,1.1131,1.1141,1.1156,1.1171,1.1184,1.1188,1.1193,1.119,1.1196,1.1199,1.12,1.1202,1.1199,1.1191,1.1191,1.1191,1.1191,1.1191]},{"header":{"parameterUnit":"m.s-1","parameterCategory":1,"la1":30.2991,"la2":30.254,"lo1":-89.0895,"lo2":-89.0444,"dx":0.0017,"dy":0.0017,"nx":28,"ny":28,"refTime":"2023-01-09T03:00:00:Z","depth":0,"parameterNumber":3,"parameterNumberName":"V-component_of_WINDS"},"data":[0,0,0,0,0,0,0,0,0,0,0,0,0,0,0,0,0,0,0,0,0,0,0,0,0,0,0,0,0,0,0,0,0,0,0,0,0,0,0,0,0,0,0,0,0,0,0,0,0,0,0,0,0,0,0,0,0,0,-0.2862,-0.2862,0,-0.29,-0.2901,-0.2901,-0.2926,-0.2926,-0.2927,-0.2927,-0.2965,-0.2965,-0.2966,0,0,0,0,0,0,0,0,0,0,0,0,0,-0.281,-0.281,-0.2862,-0.2862,-0.2863,-0.29,-0.2901,-0.2901,-0.2926,-0.2926,-0.2927,-0.2927,-0.2964,-0.2965,-0.2966,0,0,0,0,0,0,0,0,0,0,0,0,0,-0.2838,-0.2811,-0.2862,-0.288,-0.2882,-0.29,-0.2901,-0.2901,-0.2926,-0.2926,-0.2927,-0.2927,-0.2964,-0.2965,-0.2967,-0.2969,0,0,-0.297,-0.2971,0,0,0,0,0,0,0,0,-0.2837,-0.284,-0.2877,-0.2879,-0.2881,-0.2909,-0.2896,-0.2924,-0.2926,-0.2909,-0.2927,-0.2927,-0.2946,-0.2949,-0.2955,-0.2971,-0.2973,-0.2971,-0.2971,-0.2972,-0.2972,0,0,0,0,0,0,0,-0.2835,-0.2839,-0.2877,-0.2877,-0.288,-0.2886,-0.289,-0.2902,-0.2926,-0.2911,-0.2913,-0.2917,-0.2947,-0.2954,-0.2956,-0.2973,-0.2971,-0.2972,-0.2972,-0.2973,-0.2994,-0.2994,0,0,0,0,0,0,-0.283,-0.2837,-0.2876,-0.2878,-0.2859,-0.2886,-0.2891,-0.29,-0.2926,-0.293,-0.2917,-0.2918,-0.2952,-0.2955,-0.2958,-0.2963,-0.2972,-0.2973,-0.2974,-0.2994,-0.2994,-0.2994,0,0,0,0,0,0,-0.2829,-0.2833,-0.2874,-0.2858,-0.2864,-0.2887,-0.2896,-0.29,-0.2907,-0.293,-0.2934,-0.2919,-0.2952,-0.2956,-0.2967,-0.2965,-0.2974,-0.2975,-0.2995,-0.2994,-0.2994,-0.2974,0,0,0,0,0,0,-0.2827,-0.2833,-0.2834,-0.2858,-0.2865,-0.2883,-0.2896,-0.2901,-0.2909,-0.2911,-0.2934,-0.2938,-0.2952,-0.2964,-0.2968,-0.2967,-0.2976,-0.2995,-0.2995,-0.2994,-0.2975,-0.2973,-0.2971,0,0,0,0,0,-0.2825,-0.2827,-0.2834,-0.2839,-0.2867,-0.2883,-0.2886,-0.2904,-0.2909,-0.2911,-0.2926,-0.2937,-0.2964,-0.2965,-0.2969,-0.2968,-0.2995,-0.2995,-0.2994,-0.2975,-0.2973,-0.2971,0,0,0,0,0,0,-0.2801,-0.283,-0.2839,-0.2848,-0.2863,-0.2887,-0.2889,-0.29,-0.2914,-0.2915,-0.2935,-0.294,-0.2949,-0.296,-0.296,-0.2973,-0.2981,-0.2981,-0.2965,-0.2963,-0.2962,-0.2959,-0.2977,0,0,0,0,0,-0.2797,-0.2808,-0.2832,-0.2838,-0.2845,-0.2866,-0.2873,-0.2885,-0.2901,-0.2907,-0.2923,-0.2938,-0.295,-0.2957,-0.297,-0.2976,-0.2982,-0.2978,-0.2976,-0.2974,-0.2974,-0.2979,-0.2978,-0.2993,-0.2993,-0.2993,0,0,-0.2789,-0.2806,-0.2811,-0.2833,-0.2846,-0.2856,-0.2871,-0.2881,-0.2889,-0.2909,-0.292,-0.2932,-0.295,-0.2959,-0.2963,-0.2968,-0.2971,-0.2974,-0.2972,-0.2973,-0.2978,-0.2977,-0.2976,-0.2992,-0.2992,-0.2992,0,0,-0.2778,-0.2792,-0.2798,-0.2811,-0.2831,-0.2845,-0.2846,-0.2869,-0.2878,-0.289,-0.2905,-0.2914,-0.2935,-0.2947,-0.2956,-0.295,-0.2961,-0.2954,-0.2944,-0.2949,-0.2947,-0.2947,-0.2945,-0.2944,-0.2954,-0.2954,-0.2954,0,-0.2765,-0.2781,-0.28,-0.281,-0.2819,-0.2838,-0.2845,-0.2856,-0.2879,-0.2885,-0.289,-0.2916,-0.2929,-0.2941,-0.294,-0.2947,-0.2949,-0.2951,-0.2946,-0.2945,-0.2945,-0.2943,-0.2943,-0.2953,-0.2953,-0.2953,-0.2953,0,-0.2764,-0.2775,-0.2778,-0.2799,-0.2809,-0.2817,-0.2837,-0.2845,-0.2856,-0.2869,-0.2881,-0.2898,-0.2914,-0.2918,-0.2929,-0.2932,-0.2934,-0.2942,-0.2951,-0.2942,-0.2941,-0.294,-0.2951,-0.2952,-0.2952,-0.2952,0,0,-0.2739,-0.2772,-0.2772,-0.2782,-0.2806,-0.2814,-0.2823,-0.284,-0.2846,-0.2861,-0.2868,-0.2885,-0.2893,-0.2903,-0.2916,-0.292,-0.2915,-0.2928,-0.2928,-0.2925,-0.2919,-0.2912,-0.2911,-0.2922,-0.2922,-0.2922,-0.2917,0,-0.2732,-0.2749,-0.2767,-0.2777,-0.2788,-0.2807,-0.2814,-0.2829,-0.2842,-0.2853,-0.2867,-0.2879,-0.2888,-0.2895,-0.2899,-0.2914,-0.2914,-0.2915,-0.2929,-0.293,-0.2924,-0.2911,-0.2904,-0.2898,-0.2917,-0.2917,-0.2917,0,-0.2726,-0.274,-0.2752,-0.2775,-0.278,-0.2787,-0.2803,-0.2813,-0.2831,-0.284,-0.2851,-0.2865,-0.2875,-0.2882,-0.2897,-0.2897,-0.2904,-0.2912,-0.2913,-0.2914,-0.2922,-0.2912,-0.2897,-0.2896,-0.2916,-0.2916,-0.2916,0,-0.2706,-0.2729,-0.2739,-0.2747,-0.2774,-0.2778,-0.2789,-0.2807,-0.2816,-0.283,-0.2836,-0.2851,-0.286,-0.2871,-0.2888,-0.2892,-0.2901,-0.291,-0.2908,-0.2908,-0.2909,-0.2909,-0.2895,-0.2914,-0.2914,-0.2914,-0.2914,0,-0.2697,-0.2703,-0.2731,-0.2737,-0.2745,-0.2765,-0.2772,-0.2785,-0.2801,-0.281,-0.2827,-0.2835,-0.2857,-0.2868,-0.2881,-0.2891,-0.2895,-0.2902,-0.2906,-0.2901,-0.29,-0.2905,-0.2906,-0.2914,-0.2914,-0.2914,-0.2914,0,-0.2676,-0.2695,-0.2707,-0.2732,-0.2738,-0.2743,-0.2764,-0.277,-0.2784,-0.2795,-0.2799,-0.2821,-0.2835,-0.2853,-0.2872,-0.2881,-0.2889,-0.2895,-0.2883,-0.2885,-0.2883,-0.2883,-0.2872,-0.2871,-0.2891,-0.289,-0.289,0,-0.2668,-0.2674,-0.2699,-0.2707,-0.2717,-0.2729,-0.2738,-0.2759,-0.2767,-0.2788,-0.2792,-0.2807,-0.282,-0.2841,-0.2858,-0.2873,-0.2879,-0.2874,-0.2881,-0.2876,-0.2879,-0.2878,-0.2879,-0.2872,-0.2872,-0.2872,-0.2871,0,-0.2653,-0.2662,-0.2675,-0.2691,-0.2702,-0.2715,-0.273,-0.2735,-0.2758,-0.2767,-0.2781,-0.2792,-0.2811,-0.2826,-0.2843,-0.2854,-0.2867,-0.2869,-0.287,-0.2864,-0.2857,-0.2861,-0.2878,-0.2869,-0.2869,-0.287,-0.287,-0.287,-0.2639,-0.2645,-0.2663,-0.2677,-0.269,-0.2703,-0.2711,-0.2726,-0.2739,-0.2757,-0.2768,-0.2781,-0.2799,-0.2823,-0.2834,-0.2845,-0.285,-0.2851,-0.2851,-0.2851,-0.2849,-0.2856,-0.2848,-0.2848,-0.2849,-0.2849,-0.2849,0,-0.2624,-0.2637,-0.265,-0.267,-0.268,-0.2692,-0.2708,-0.2717,-0.2729,-0.2744,-0.2757,-0.2773,-0.2787,-0.2806,-0.2822,-0.2827,-0.2833,-0.283,-0.283,-0.2833,-0.2844,-0.2842,-0.2825,-0.2825,-0.2825,-0.2825,-0.2825,-0.2825,-0.2618,-0.2628,-0.264,-0.2657,-0.267,-0.2684,-0.2693,-0.2705,-0.2717,-0.2735,-0.2747,-0.276,-0.2777,-0.2794,-0.2807,-0.2813,-0.2818,-0.2813,-0.282,-0.283,-0.2832,-0.2834,-0.2832,-0.2814,-0.2814,-0.2808,-0.2808,-0.2808]}]]